RH
80 88 92 99 100 96 98 100 99 100 90 90 99 100 100 100 100 99 93 93 85 78 75 71 79 82 80 82 91 88 76 74 72 68 77 74 72 74 65 67 71 72 65
71 77 91 98 100 100 98 100 100 100 99 99 100 99 100 100 100 100 100 100 96 88 78 76 78 82 87 88 94 96 87 76 68 70 76 88 83 84 77 76 76 75 63
68 62 75 97 100 100 100 100 100 100 100 100 100 100 100 100 97 99 100 100 100 99 94 82 81 83 87 88 88 91 96 94 78 71 72 93 90 82 77 77 68 63 64
61 58 66 92 100 100 98 99 100 100 100 100 100 99 100 100 100 99 100 100 100 100 100 93 89 86 83 84 85 88 92 96 88 79 80 74 69 86 82 74 69 70 70
56 60 58 69 96 96 98 97 98 98 100 100 100 100 99 100 100 98 95 96 99 98 98 97 88 90 85 81 88 90 92 94 96 99 92 93 86 73 67 71 69 72 67
54 51 49 51 66 72 86 90 92 96 99 99 100 100 100 100 100 100 99 100 100 100 100 99 96 88 81 75 73 78 85 84 92 91 96 93 88 85 76 74 67 64 57
55 56 52 53 54 56 62 62 74 88 91 94 89 91 94 94 96 99 100 99 99 97 96 97 99 98 100 96 86 76 75 78 74 68 75 84 86 86 84 81 80 81 69
55 57 54 54 54 55 54 58 63 61 58 66 66 63 63 70 75 79 77 74 82 85 91 96 95 96 97 100 98 99 91 85 78 75 76 78 79 80 88 91 88 90 88
55 56 53 52 52 53 54 54 54 52 45 46 47 43 48 45 46 47 47 51 49 50 44 61 76 81 86 90 94 99 98 99 100 100 92 83 77 80 81 83 89 91 92
54 55 55 53 52 51 51 49 54 54 45 37 31 31 34 33 37 40 43 42 40 38 36 38 40 41 44 46 58 74 85 92 97 100 100 100 100 96 95 92 90 94 94
55 57 56 54 52 47 46 47 46 56 49 36 31 28 28 26 27 30 30 29 28 29 32 35 39 41 41 39 41 46 67 62 74 79 87 91 97 100 99 96 99 100 100
53 57 57 55 54 51 45 41 39 40 54 37 31 32 32 31 31 31 30 29 27 28 27 26 31 35 40 43 54 66 66 66 68 72 64 66 78 80 95 100 100 100 100
53 56 57 59 58 54 47 42 40 38 42 44 33 31 31 32 36 38 38 36 34 34 32 33 35 34 38 45 56 66 74 81 84 83 81 78 74 67 65 80 86 98 100
52 55 57 60 59 54 47 42 38 38 36 38 35 35 39 42 41 38 37 36 36 39 41 42 44 42 43 59 76 82 86 85 82 80 82 81 80 83 83 86 85 79 84
54 54 56 60 59 55 45 40 37 37 39 40 40 40 37 33 31 28 29 31 33 36 39 41 46 50 52 74 87 87 88 89 90 85 80 77 81 92 91 90 93 93 95
50 52 57 59 56 55 46 42 43 46 46 48 49 48 48 50 52 50 46 43 41 38 36 35 37 37 47 83 88 86 88 90 90 88 86 81 82 80 87 84 86 86 90
54 56 57 58 51 51 46 46 47 48 47 49 50 50 51 53 54 54 59 64 71 71 59 50 48 44 48 84 88 87 87 89 84 83 83 82 85 82 78 80 87 86 86
55 58 58 52 47 48 48 50 50 50 50 49 50 50 50 52 54 53 55 56 60 70 73 82 87 81 58 82 89 87 88 85 80 81 83 84 84 87 90 88 86 86 83
59 58 50 46 44 46 52 53 50 50 51 52 54 57 55 55 56 52 55 59 65 67 67 72 65 69 81 92 90 85 83 82 82 82 82 88 90 88 86 78 75 74 76
48 48 45 46 48 52 56 53 53 54 54 56 57 57 58 60 62 59 60 61 70 70 74 69 73 70 72 72 90 85 84 84 82 84 90 90 81 76 74 74 81 85 84
47 48 47 49 52 56 56 54 58 56 55 57 57 57 59 62 63 63 60 70 73 78 71 71 70 72 78 92 86 78 80 82 82 89 91 94 88 81 76 81 96 98 91
48 50 52 54 58 58 56 60 61 57 59 61 61 60 62 65 72 69 75 82 81 82 83 88 87 82 81 93 80 79 77 74 86 96 97 95 88 77 78 83 84 78 72
52 53 56 62 60 55 60 62 58 59 62 65 61 61 63 67 70 85 89 89 88 94 100 99 97 93 91 91 80 78 79 80 84 91 81 75 79 82 80 81 78 91 98
56 58 65 64 61 59 62 63 60 63 67 66 65 67 76 86 84 80 87 96 98 100 100 99 96 95 98 88 86 91 97 96 93 95 87 98 88 79 79 82 84 83 86
63 69 66 66 65 62 64 64 64 66 70 74 76 83 90 90 94 94 95 99 100 99 98 98 99 98 96 92 87 92 94 97 95 84 99 94 88 90 85 86 85 85 89
72 66 69 71 66 68 68 63 66 74 79 85 93 94 97 97 99 100 100 86 96 93 86 82 86 91 89 76 85 84 86 88 91 96 98 93 90 87 86 89 91 89 89
Wind_Speed
19 25 27 30 33 38 36 33 25 16 7 6 12 12 15 18 28 34 28 28 31 27 24 20 18 17 17 18 20 24 22 21 23 18 10 12 15 17 20 21 24 22 18
17 25 29 32 35 30 39 38 32 23 8 8 13 12 11 7 10 17 20 27 25 22 22 19 17 14 13 10 11 20 17 17 24 12 10 2 6 15 18 21 23 22 20
14 17 26 28 31 34 38 35 34 28 20 10 12 12 16 19 21 20 21 17 14 12 8 12 14 13 12 11 11 12 12 16 25 18 8 2 3 5 14 24 25 26 25
11 16 22 28 31 33 39 39 36 35 32 27 25 28 20 21 27 21 26 24 17 12 9 7 6 8 9 10 13 12 14 11 16 23 13 5 5 3 2 14 24 29 30
9 11 18 21 24 36 36 39 42 45 37 35 31 29 26 23 24 28 31 28 25 21 17 13 11 5 2 1 5 10 12 13 12 16 14 13 11 6 2 3 6 20 30
8 14 17 19 23 26 33 35 41 38 40 40 39 35 33 27 28 26 24 21 17 17 17 17 16 13 8 7 6 7 8 9 14 11 13 12 6 7 5 3 6 9 16
6 8 16 19 21 26 26 26 26 33 34 41 41 37 33 31 30 26 23 19 17 16 16 13 10 8 9 8 5 4 4 8 11 9 13 16 16 16 13 12 8 8 13
6 8 13 16 19 22 26 25 25 28 32 37 35 34 30 30 28 24 22 21 18 16 14 11 9 9 8 7 6 8 8 8 9 10 12 14 16 16 18 15 13 4 8
4 6 12 16 19 21 22 24 27 28 30 28 28 31 29 30 28 25 24 22 19 18 19 16 14 13 11 10 11 10 9 11 12 12 13 14 15 16 19 20 21 16 8
4 5 9 13 16 18 20 22 23 23 25 27 28 28 27 26 25 24 23 23 23 22 20 20 19 17 16 16 14 14 14 13 12 12 14 17 18 18 19 21 23 23 20
4 4 7 10 12 15 19 20 21 21 23 24 24 25 25 25 22 21 21 21 21 22 21 20 20 19 19 17 16 13 12 15 15 15 15 16 16 16 21 22 25 25 24
4 5 6 7 11 14 16 18 19 20 18 19 20 22 22 21 21 23 23 22 22 19 20 19 18 18 18 18 15 16 18 17 17 18 18 17 18 20 14 15 23 24 24
5 3 4 7 8 11 13 15 17 17 17 17 19 21 23 23 23 21 20 20 19 18 19 18 18 18 18 17 15 18 19 18 18 19 19 19 20 21 21 22 25 20 19
7 4 3 4 7 9 13 15 17 17 18 18 20 21 21 20 20 20 20 21 21 20 20 19 18 17 17 13 15 18 19 20 20 20 20 20 20 19 21 22 21 23 24
6 5 3 3 6 9 12 15 17 17 17 16 17 18 18 19 19 20 21 21 22 22 23 23 22 21 18 13 18 19 19 19 20 21 22 22 20 19 18 19 20 22 20
8 5 5 4 5 7 8 10 12 12 13 12 15 17 18 17 16 17 17 17 18 19 21 23 23 24 23 19 18 18 20 20 21 23 22 22 21 20 18 20 21 20 22
7 6 5 3 3 3 5 8 8 9 11 12 13 15 16 17 17 19 18 18 18 19 19 18 18 21 23 20 21 20 20 22 24 24 23 25 22 22 25 24 22 23 22
5 6 6 4 1 2 4 6 7 9 12 13 15 16 19 19 19 21 20 22 23 23 23 20 17 19 20 20 22 22 21 23 24 22 23 26 27 25 22 25 26 26 26
9 7 4 2 1 4 5 7 9 10 12 13 15 15 17 18 20 22 22 22 23 24 25 23 26 25 24 18 19 20 22 24 23 26 26 24 25 24 24 26 27 28 28
9 7 4 1 2 4 6 9 10 11 14 16 17 17 17 18 20 20 21 23 21 24 24 26 23 24 23 22 20 20 21 21 22 24 25 22 22 26 27 28 28 28 28
7 5 2 0 3 6 9 11 11 13 16 19 19 20 19 20 19 21 23 22 23 24 26 28 27 25 20 20 20 23 24 23 25 23 23 23 25 28 29 30 30 32 36
4 2 1 3 4 7 10 10 12 16 18 18 20 21 20 19 17 21 22 21 23 23 26 25 25 23 23 18 24 24 23 24 25 27 28 29 29 32 35 35 34 36 37
1 3 4 6 7 10 9 14 17 18 19 20 22 22 22 21 21 19 19 20 21 22 20 20 21 22 21 20 24 25 24 25 28 28 31 33 35 34 34 33 33 32 30
3 4 6 9 13 11 13 14 17 18 20 22 23 23 23 21 19 22 19 19 21 18 19 20 21 23 17 21 24 25 26 26 28 30 34 29 30 31 31 31 28 26 26
5 6 11 13 15 17 18 17 18 19 20 22 23 23 20 21 22 20 20 20 21 21 23 22 23 21 19 22 29 28 29 28 28 32 24 22 23 23 23 25 27 27 27
8 11 12 15 19 20 22 23 21 19 20 22 18 18 19 22 20 20 23 23 21 20 21 24 24 24 23 28 27 29 28 28 29 25 19 21 21 22 23 24 26 27 29
Wind_Direction
350 359 1 8 11 16 13 12 15 355 276 209 210 222 208 211 220 215 210 204 201 193 190 194 197 201 209 214 213 205 200 204 209 195 193 210 219 227 230 228 224 225 229
360 2 2 10 12 10 12 7 12 13 72 211 211 205 186 198 191 205 197 194 189 191 187 186 197 204 206 199 203 205 197 201 193 175 159 164 235 232 226 224 228 231 237
0 2 6 10 11 16 17 5 11 16 50 99 161 131 126 96 83 71 98 90 143 142 171 185 199 213 215 216 208 209 212 196 200 199 165 139 205 188 221 224 236 241 241
14 13 11 11 14 13 25 22 16 22 44 73 75 90 82 78 75 67 69 66 71 78 85 107 161 203 224 234 243 235 229 225 210 210 222 208 163 169 214 227 233 239 242
9 16 16 15 17 27 25 25 31 30 39 59 68 75 73 70 67 64 61 59 54 54 53 53 52 35 43 311 271 241 239 236 238 219 232 245 247 247 166 202 225 235 242
10 21 22 23 21 24 33 27 38 31 38 49 52 57 62 61 66 62 63 58 54 47 42 48 43 32 15 359 334 292 262 257 253 244 251 236 203 231 219 237 235 230 241
16 21 22 21 21 23 26 31 32 39 38 50 52 51 55 56 59 56 54 52 41 28 24 21 23 19 21 24 344 310 271 269 262 256 253 257 258 257 248 252 259 245 262
23 23 24 27 29 29 29 32 33 39 45 51 54 56 57 57 58 58 56 55 50 32 19 15 11 354 334 325 338 351 354 318 295 291 285 279 269 267 263 251 250 264 250
50 33 36 42 45 47 44 43 41 44 49 51 54 56 54 57 55 52 52 47 46 37 27 18 8 3 349 341 326 311 300 306 321 305 295 287 283 283 278 271 259 244 271
105 68 51 48 54 56 56 55 52 48 49 51 50 49 51 51 50 45 43 41 36 31 28 21 16 10 1 353 345 334 323 309 302 312 309 307 300 292 283 276 271 260 251
135 104 78 67 58 53 52 55 53 48 45 43 45 47 44 42 42 40 36 32 30 24 18 18 11 10 4 360 354 352 337 337 324 315 307 301 304 306 288 283 270 255 245
147 124 94 71 57 55 50 44 44 47 44 41 40 40 39 36 34 31 28 25 25 18 12 10 5 3 359 358 360 353 349 347 340 332 325 318 312 305 307 305 266 259 255
155 137 89 70 62 53 47 44 39 37 39 38 34 29 25 23 25 24 21 20 16 11 8 4 0 358 353 352 352 347 347 343 339 334 331 325 322 316 313 305 297 313 286
164 151 108 54 37 37 33 30 28 27 24 22 19 20 19 17 16 13 11 9 7 4 0 359 355 354 349 351 345 343 340 334 329 327 324 322 322 319 315 311 306 301 302
166 157 149 83 39 30 23 19 17 14 13 14 13 10 6 4 2 2 360 357 356 354 351 349 350 351 350 346 338 336 331 326 324 321 319 319 315 307 304 301 303 304 304
168 152 126 81 42 30 19 11 8 7 6 7 5 1 0 360 359 356 353 351 349 347 345 345 343 340 340 336 330 328 324 322 321 316 315 316 312 309 304 300 294 291 291
154 153 138 102 43 15 3 1 356 353 358 359 357 356 353 351 349 348 347 346 342 340 340 339 338 332 332 332 328 326 322 318 316 317 316 316 309 306 309 308 301 297 289
128 128 139 131 87 7 349 348 346 349 352 350 345 345 346 343 342 342 341 340 340 337 336 334 328 325 328 327 326 324 319 318 317 315 312 309 309 308 303 301 299 294 292
134 140 139 125 22 348 333 337 340 338 340 341 339 336 336 332 332 334 334 333 332 331 333 330 329 331 328 323 324 324 317 314 311 311 308 304 302 303 303 300 298 295 292
129 132 132 123 344 337 329 328 328 325 331 332 329 327 328 326 324 326 326 325 325 325 325 323 324 327 321 330 327 323 317 312 306 301 303 302 300 302 300 299 298 293 290
121 123 122 338 330 329 324 322 318 318 323 322 322 325 325 322 321 318 320 322 322 320 321 322 323 325 326 318 321 320 315 308 306 304 302 298 303 302 300 297 292 287 291
106 76 330 318 323 323 318 312 308 317 316 317 318 320 320 318 313 315 317 317 315 317 318 319 318 321 325 317 319 317 311 308 306 302 302 301 302 300 299 296 291 289 289
66 340 327 320 322 322 316 310 315 317 317 316 315 317 318 317 318 315 309 309 313 312 308 307 305 306 307 308 315 313 312 310 304 301 301 302 304 304 302 297 293 290 287
348 326 319 317 315 317 313 310 314 317 315 314 315 317 316 314 308 309 309 303 304 300 298 293 291 295 289 312 311 303 301 306 301 301 298 299 307 306 301 299 296 290 284
321 321 318 316 312 317 317 321 320 318 314 312 311 310 308 309 309 306 304 302 295 293 287 288 294 291 306 309 307 307 308 304 302 301 308 312 312 310 308 305 301 298 294
323 321 321 317 317 320 320 322 323 320 313 308 303 303 304 304 305 300 300 308 297 297 295 297 296 301 302 308 308 309 306 304 304 312 317 312 308 306 306 304 301 298 296